This is the latest recevied weather packets stored in our database for station/object K5NCO. If no packets are shown the sender has not sent any weather packets the latest 10 day(s).
| Time | Temp. | Humidity | Pressure | Rain* | Wind** | Luminosity | Snow |
|---|---|---|---|---|---|---|---|
| 1777944083 | 25.56° C | 69% | 1010.3 hPa | 0 mm | - | 0 W/m² | - |
| 1777943778 | 25.56° C | 68% | 1010.3 hPa | 0 mm | - | 1 W/m² | - |
| 1777943476 | 25.56° C | 68% | 1010.2 hPa | 0 mm | - | 2 W/m² | - |
| 1777943171 | 25.56° C | 67% | 1010.1 hPa | 0 mm | - | 3 W/m² | - |
| 1777942868 | 25.56° C | 67% | 1010.3 hPa | 0 mm | - | 6 W/m² | - |
| 1777942564 | 25.56° C | 67% | 1010.3 hPa | 0 mm | - | 9 W/m² | - |
| 1777942261 | 25.56° C | 67% | 1010.2 hPa | 0 mm | - | 12 W/m² | - |
| 1777941958 | 25.56° C | 66% | 1010.1 hPa | 0 mm | - | 15 W/m² | - |
| 1777941655 | 26.11° C | 65% | 1010 hPa | 0 mm | - | 19 W/m² | - |
| 1777941352 | 26.11° C | 64% | 1010.1 hPa | 0 mm | - | 30 W/m² | - |
| 1777941050 | 26.11° C | 64% | 1010.2 hPa | 0 mm | - | 37 W/m² | - |
| 1777940749 | 26.11° C | 64% | 1010 hPa | 0 mm | - | 42 W/m² | - |
| 1777940444 | 26.11° C | 64% | 1009.9 hPa | 0 mm | - | 49 W/m² | - |
| 1777940140 | 26.11° C | 63% | 1010 hPa | 0 mm | - | 51 W/m² | - |
| 1777939838 | 26.11° C | 64% | 1009.9 hPa | 0 mm | - | 53 W/m² | - |
| 1777939535 | 26.67° C | 62% | 1009.8 hPa | 0 mm | - | 47 W/m² | - |
| 1777939233 | 26.67° C | 62% | 1010.2 hPa | 0 mm | - | 79 W/m² | - |
| 1777938929 | 26.67° C | 62% | 1010.3 hPa | 0 mm | - | 92 W/m² | - |
| 1777938626 | 26.67° C | 62% | 1010.3 hPa | 0 mm | - | 59 W/m² | - |
| 1777938323 | 26.67° C | 62% | 1010.3 hPa | 0 mm | - | 130 W/m² | - |
| 1777938020 | 26.67° C | 63% | 1010.3 hPa | 0 mm | - | 121 W/m² | - |
| 1777937715 | 26.67° C | 62% | 1010.3 hPa | 0 mm | - | 119 W/m² | - |
| 1777937412 | 26.67° C | 62% | 1010.4 hPa | 0 mm | - | 150 W/m² | - |
| 1777937109 | 26.67° C | 61% | 1010.4 hPa | 0 mm | - | 140 W/m² | - |
| 1777936807 | 27.22° C | 62% | 1010.4 hPa | 0 mm | - | 102 W/m² | - |
* Rain latest hour (hover to see other rain measurements)
** Current wind speed in m/s (hover to see current wind gust speed)